EW5040 Weather Reports


Display with metric or nautical units.
time (UTC)temp
F
wind
direction
speed
MPH
gust
MPH
rain 1hr
in
rain 24hr
in
rain mn
in
humidity
%
barometer
mb
20260906051537 61 351 0.0 1.0 0.00 0.00 0.00 96 1014.9
20260906050036 61 351 0.0 2.0 0.00 0.00 0.00 96 1014.9
20260906044534 61 351 0.0 3.0 0.00 0.00 0.00 95 1014.9
20260906043032 60 351 0.0 0.0 0.00 0.00 0.00 95 1014.8
20260906041528 60 351 0.0 1.0 0.00 0.00 0.00 94 1014.7
20260906040030 60 351 0.0 0.0 0.00 0.00 0.00 93 1014.7
20260906034535 59 351 0.0 0.0 0.00 0.00 0.00 92 1014.6
20260906033028 60 351 0.0 0.0 0.00 0.00 0.00 91 1014.6
20260906031523 60 351 0.0 0.0 0.00 0.00 0.00 91 1014.5
20260906030023 61 351 0.0 0.0 0.00 0.00 0.00 91 1014.5
20260906024522 61 351 0.0 0.0 0.00 0.00 0.00 90 1014.4
20260906023022 62 351 0.0 0.0 0.00 0.00 0.00 90 1014.5
20260906021523 62 351 0.0 0.0 0.00 0.00 0.00 90 1014.3
20260906020020 62 351 0.0 0.0 0.00 0.00 0.00 90 1014.2
20260906014533 62 351 0.0 0.0 0.00 0.00 0.00 90 1014.2
20260906013019 62 351 0.0 0.0 0.00 0.00 0.00 90 1014.2
20260906011532 62 351 0.0 0.0 0.00 0.00 0.00 89 1014.1
20260906010018 62 351 0.0 0.0 0.00 0.00 0.00 88 1014.1
20260906004532 63 351 0.0 0.0 0.00 0.00 0.00 87 1013.9
20260906003022 63 351 0.0 0.0 0.00 0.00 0.00 85 1013.9
20260906001518 65 351 0.0 0.0 0.00 0.00 0.00 82 1013.9
20260906000016 66 351 0.0 0.0 0.00 0.00 0.00 79 1013.7
20260905234516 68 351 0.0 0.0 0.00 0.00 0.00 76 1013.6
20260905233014 69 351 0.0 1.0 0.00 0.00 0.00 74 1013.7
20260905231514 71 351 0.0 2.0 0.00 0.00 0.00 68 1013.7
20260905230016 72 351 0.0 3.0 0.00 0.00 0.00 66 1013.7
20260905224524 73 351 0.0 3.0 0.00 0.00 0.00 62 1013.6
20260905223012 74 319 0.0 3.0 0.00 0.00 0.00 61 1013.6
20260905221512 75 323 0.0 6.0 0.00 0.00 0.00 56 1013.7
20260905220015 76 55 1.0 8.0 0.00 0.00 0.00 55 1013.7
20260905214512 76 287 1.0 5.0 0.00 0.00 0.00 57 1013.6
20260905213024 77 284 3.0 8.0 0.00 0.00 0.00 54 1013.5
20260905211510 77 315 1.0 7.0 0.00 0.00 0.00 55 1013.4
20260905210012 78 286 3.0 7.0 0.00 0.00 0.00 52 1013.4
20260905204512 77 335 2.0 10.0 0.00 0.00 0.00 54 1013.3
20260905203008 77 309 1.0 9.0 0.00 0.00 0.00 53 1013.3
20260905201507 77 300 2.0 11.0 0.00 0.00 0.00 54 1013.4
20260905200006 77 324 3.0 9.0 0.00 0.00 0.00 54 1013.4
20260905194505 77 323 3.0 9.0 0.00 0.00 0.00 57 1013.5
20260905193002 77 225 3.0 9.0 0.00 0.00 0.00 57 1013.5
20260905191501 77 315 2.0 9.0 0.00 0.00 0.00 58 1013.6
20260905190103 77 248 1.0 8.0 0.00 0.00 0.00 60 1013.8
20260905184606 76 290 2.0 7.0 0.00 0.00 0.00 60 1013.9
20260905183100 76 244 3.0 9.0 0.00 0.00 0.00 59 1014.0
20260905181600 76 293 1.0 6.0 0.00 0.00 0.00 61 1013.9
20260905180100 75 307 1.0 9.0 0.00 0.00 0.00 63 1013.9
20260905174555 75 300 1.0 12.0 0.00 0.00 0.00 65 1013.6
20260905173053 75 308 2.0 8.0 0.00 0.00 0.00 64 1013.6
20260905171551 75 11 1.0 9.0 0.00 0.00 0.00 62 1013.7
20260905170055 75 285 3.0 9.0 0.00 0.00 0.00 62 1013.7
20260905164547 74 69 3.0 8.0 0.00 0.00 0.00 64 1013.7
20260905163046 73 336 0.0 4.0 0.00 0.00 0.00 69 1013.9
20260905161545 74 329 4.0 9.0 0.00 0.00 0.00 68 1013.9
20260905160048 75 342 3.0 9.0 0.00 0.00 0.00 67 1013.9
20260905154539 73 126 1.0 4.0 0.00 0.00 0.00 73 1013.9
20260905153039 73 252 1.0 8.0 0.00 0.00 0.00 73 1013.9
20260905151536 72 346 1.0 8.0 0.00 0.00 0.00 72 1014.1
20260905150036 72 333 4.0 9.0 0.00 0.00 0.00 70 1014.1
20260905144535 72 335 1.0 8.0 0.00 0.00 0.00 73 1014.1
20260905143037 73 303 1.0 8.0 0.00 0.00 0.00 74 1013.9
20260905141526 73 287 2.0 9.0 0.00 0.00 0.00 71 1014.1
20260905140021 71 249 1.0 7.0 0.00 0.00 0.00 78 1014.1
20260905134520 70 355 1.0 7.0 0.00 0.00 0.00 82 1014.1
20260905133012 67 296 1.0 6.0 0.00 0.00 0.00 89 1014.0
20260905131512 64 329 2.0 6.0 0.00 0.00 0.00 96 1014.0
20260905130003 63 325 1.0 5.0 0.00 0.00 0.00 98 1014.1
20260905124501 63 308 0.0 5.0 0.00 0.00 0.00 98 1014.1
20260905123104 62 346 1.0 5.0 0.00 0.00 0.00 98 1014.1
20260905121559 60 302 1.0 4.0 0.00 0.00 0.00 98 1014.2
20260905114554 58 214 0.0 0.0 0.00 0.00 0.00 96 1014.2
20260905113051 58 214 0.0 0.0 0.00 0.00 0.00 96 1014.0
20260905111616 58 214 0.0 1.0 0.00 0.00 0.00 96 1013.7
20260905110043 58 214 0.0 0.0 0.00 0.00 0.00 96 1013.4
20260905104540 58 214 0.0 0.0 0.00 0.00 0.00 96 1013.2
20260905103040 58 214 0.0 0.0 0.00 0.00 0.00 96 1013.2
20260905101544 59 214 0.0 0.0 0.00 0.00 0.00 96 1013.2
20260905100138 59 214 0.0 0.0 0.00 0.00 0.00 96 1013.3
20260905094537 59 214 0.0 0.0 0.00 0.00 0.00 96 1013.1
20260905093040 59 214 0.0 0.0 0.00 0.00 0.00 96 1013.0
20260905091535 59 214 0.0 0.0 0.00 0.00 0.00 96 1013.0
20260905090036 60 214 0.0 0.0 0.00 0.00 0.00 96 1012.9
20260905084532 60 214 0.0 0.0 0.00 0.00 0.00 96 1012.7
20260905083037 60 214 0.0 0.0 0.00 0.00 0.00 95 1012.5
20260905081532 60 214 0.0 0.0 0.00 0.00 0.00 95 1012.4
20260905080041 60 214 0.0 0.0 0.00 0.00 0.00 95 1012.5
20260905074528 60 214 0.0 0.0 0.00 0.00 0.00 95 1012.6
20260905073028 60 214 0.0 0.0 0.00 0.00 0.00 95 1012.7
20260905071531 60 214 0.0 0.0 0.00 0.00 0.00 95 1012.7
20260905070028 61 214 0.0 0.0 0.00 0.00 0.00 95 1012.8
20260905064528 61 214 0.0 0.0 0.00 0.00 0.00 95 1013.0
20260905063021 61 214 0.0 0.0 0.00 0.00 0.00 95 1013.0
20260905061519 61 214 0.0 0.0 0.00 0.00 0.00 94 1013.1
20260905060030 61 214 0.0 0.0 0.00 0.00 0.00 94 1013.1
20260905054516 61 214 0.0 0.0 0.00 0.00 0.00 93 1013.2
20260905053116 61 214 0.0 0.0 0.00 0.00 0.00 93 1013.3